Location: Newark
(58.9986°N, 38.5006°E)
Time: 15:01:52
(UTC+00:00)

N. Korean satellite - Pass Details

Date: 15 December 2019
Orbit: 454 x 507 km, 97.2° (Epoch: 27 January)

Event Time Altitude Azimuth Distance (km) Brightness Sun altitude
Rises 13:32:19 0° 146° (SSE) 2,597 10.3 -7.0°
Reaches altitude 10° 13:34:27 10° 141° (SE) 1,711 9.3 -7.3°
Maximum altitude 13:38:00 46° 67° (ENE) 679 6.9 -7.6°
Drops below altitude 10° 13:41:30 10° 354° (N) 1,698 9.1 -8.0°
Sets 13:43:37 0° 348° (NNW) 2,575 10.0 -8.2°
